CAPE
nan nan nan nan nan nan nan nan nan nan nan nan nan nan nan nan nan nan nan nan nan nan nan nan nan nan nan nan nan nan nan nan nan nan nan nan nan nan nan nan nan nan nan nan nan nan 0 1 1 2 4 5 6 6 8 11 11 14 17 17 17 19 22 23 23 22 23 24 25 25 24 21 18 18 17 17 16 16 16 16 16 16 15 17 17 22
nan nan nan nan nan nan nan nan nan nan nan nan nan nan nan nan nan nan nan nan nan nan nan nan nan nan nan nan nan nan nan nan nan nan nan nan nan nan nan nan nan nan nan nan nan nan nan 0 0 1 2 3 4 4 5 8 8 10 13 14 14 16 18 20 20 21 20 22 20 20 19 16 16 16 16 16 16 16 16 19 19 19 19 22 22 26
nan nan nan nan nan nan nan nan nan nan nan nan nan nan nan nan nan nan nan nan nan nan nan nan nan nan nan nan nan nan nan nan nan nan nan 0 nan nan nan nan nan nan nan nan nan nan nan nan nan 0 1 1 2 2 3 5 5 6 8 9 9 11 15 16 16 16 16 17 15 15 14 13 13 13 15 16 17 17 18 21 21 21 22 25 25 29
nan nan nan nan nan nan nan nan nan nan nan nan nan nan nan nan nan nan nan nan nan nan nan nan nan nan nan nan nan nan nan nan nan nan nan nan nan nan nan nan nan nan nan nan nan nan nan nan nan nan 0 1 1 1 2 3 3 4 5 6 6 8 9 10 10 12 13 12 11 11 11 12 13 13 14 15 17 17 19 21 21 23 25 28 28 33
nan nan nan nan nan nan nan nan nan nan nan nan nan nan nan nan nan nan nan nan nan nan nan nan nan nan nan nan nan nan nan nan nan nan nan nan nan nan nan nan nan nan nan nan nan nan nan nan nan nan nan 0 1 1 1 2 2 2 3 4 4 5 7 8 8 9 10 10 9 9 10 10 12 12 13 14 17 17 20 21 21 22 26 31 31 35
nan nan nan nan nan nan nan nan nan nan nan nan nan nan nan nan nan nan nan nan nan nan nan nan nan nan nan nan nan nan nan nan nan nan nan nan nan nan nan nan nan nan nan nan nan nan nan nan nan nan nan nan 0 0 1 1 1 1 2 3 3 5 5 6 6 7 6 6 6 6 7 8 10 10 10 13 16 16 19 23 23 23 27 31 31 38
nan nan nan nan nan nan nan nan nan nan nan nan nan nan nan nan nan nan nan nan nan nan nan nan nan nan nan nan nan nan nan nan nan nan nan nan nan nan nan nan nan nan nan nan nan nan nan nan nan nan nan nan nan nan 0 0 0 1 2 3 3 3 4 4 4 4 4 4 5 5 6 7 9 9 9 12 16 16 20 23 23 25 26 30 30 36
nan nan nan nan nan nan nan nan nan nan nan nan nan nan nan nan nan nan 0 nan nan nan nan nan nan nan nan nan nan nan nan nan nan nan nan nan nan nan nan nan nan nan nan nan nan nan nan nan nan nan nan nan nan nan nan nan nan nan 0 0 0 0 0 0 0 1 2 3 5 5 7 9 10 10 12 13 16 16 18 20 20 25 27 29 29 31
2 0 nan 1 1 1 nan nan nan nan nan nan nan nan nan nan nan nan nan nan nan nan nan nan nan nan nan nan nan nan nan nan nan nan nan nan nan nan nan nan nan nan nan nan nan nan nan nan nan nan nan nan nan nan nan nan nan nan nan nan nan nan nan nan nan 1 2 4 7 7 9 10 13 13 14 14 15 15 16 18 18 23 27 29 29 33
3 2 0 0 0 0 nan nan nan nan 1 0 0 0 nan nan nan nan nan nan nan nan nan nan nan nan nan nan nan nan nan nan nan nan nan nan nan nan nan nan nan nan nan nan nan nan nan nan nan nan nan nan nan nan nan nan nan nan nan nan nan nan nan nan nan 1 4 6 8 8 10 12 13 13 13 14 15 15 15 17 17 20 25 30 30 32
3 2 2 2 2 1 0 nan nan nan 2 1 0 0 0 nan nan nan nan nan nan nan nan nan nan nan nan nan nan nan nan nan nan nan nan nan nan nan nan nan nan nan nan nan nan nan nan nan nan nan nan nan nan nan nan nan nan nan nan nan nan nan nan 0 0 3 6 7 10 10 11 12 14 14 14 15 16 16 17 18 18 19 21 25 25 30
1 2 3 3 3 1 0 1 2 2 2 0 nan nan nan nan 0 0 nan nan nan nan nan nan nan nan nan nan nan nan nan nan nan nan nan nan nan nan nan nan nan nan nan nan nan nan nan nan nan nan nan nan nan nan nan nan nan nan nan nan nan nan 0 3 3 5 7 8 10 10 12 13 14 14 15 16 16 16 17 17 17 20 20 22 22 27
4 4 4 3 3 2 0 1 1 1 0 nan nan nan nan nan nan nan nan nan nan nan nan nan nan nan nan nan nan nan nan nan nan nan nan nan nan nan nan nan nan nan nan nan nan nan nan nan nan nan nan nan nan nan nan nan nan nan nan nan nan nan 1 4 4 6 8 9 10 10 11 13 14 14 14 15 16 16 16 17 17 19 20 21 21 25
4 5 5 4 4 2 1 1 0 0 0 nan nan nan 1 1 0 0 nan nan nan nan nan nan nan nan nan nan nan nan nan nan nan nan nan nan nan nan nan nan nan nan nan nan nan nan nan nan nan nan nan nan nan nan nan nan nan nan nan nan nan 0 2 4 4 6 8 9 10 10 11 12 13 13 14 14 16 16 16 17 17 19 20 20 20 24
4 5 4 3 3 2 1 1 1 1 0 0 1 1 2 1 0 0 nan nan nan nan nan nan nan nan nan nan nan nan nan nan nan nan nan nan nan nan nan nan nan nan nan nan nan nan nan nan nan nan nan nan nan nan nan nan nan nan nan nan nan 1 2 4 4 6 8 9 10 10 11 11 13 13 13 14 15 15 16 17 17 21 20 20 20 23
5 6 6 3 3 2 2 2 1 1 1 1 3 3 2 0 nan nan nan nan nan 0 nan nan nan nan nan nan 0 0 nan 0 nan nan nan nan nan nan nan nan nan nan nan nan nan nan nan nan nan nan nan nan nan nan nan nan nan nan nan nan nan 1 2 4 4 6 8 9 10 10 11 11 12 12 12 14 14 14 15 17 17 21 21 23 23 25
9 7 7 5 5 3 2 3 3 3 2 4 3 3 1 0 0 0 0 1 1 1 0 0 0 nan nan nan 0 0 2 0 nan nan nan nan nan nan nan nan nan nan nan nan nan nan nan nan nan nan nan nan nan nan nan nan nan nan nan 0 0 1 2 4 4 5 6 7 10 10 10 11 11 11 12 13 14 14 16 18 18 20 20 22 22 24
14 10 9 8 8 5 5 4 3 3 4 4 4 4 3 1 1 1 0 2 2 2 2 1 1 0 nan nan nan nan 4 0 nan nan nan nan nan nan nan nan nan nan nan nan nan nan nan nan nan nan nan nan nan nan nan nan nan nan nan 0 0 1 2 3 3 5 6 7 7 7 8 10 11 11 10 12 14 14 15 20 20 21 22 21 21 24
14 14 11 9 9 8 6 5 4 4 4 4 3 3 3 2 2 2 1 3 3 3 3 2 2 1 1 0 nan nan 5 3 0 0 nan nan nan nan nan nan nan nan nan nan nan nan nan nan nan nan nan nan nan nan nan nan nan nan nan nan nan 0 1 2 2 4 5 6 7 7 8 9 10 10 11 12 14 14 16 21 21 21 21 22 22 25
11 13 11 9 9 8 6 5 4 4 5 6 5 5 4 3 3 3 3 5 5 5 5 4 4 3 3 1 0 0 5 4 1 1 0 nan nan nan nan nan nan nan nan nan nan nan nan nan nan nan nan nan nan nan nan nan nan nan nan nan nan 0 1 2 2 3 4 5 7 7 8 8 10 10 10 13 14 14 16 21 21 22 21 22 22 23
8 10 13 8 8 9 7 6 6 6 8 11 9 9 8 5 4 4 4 6 6 7 9 4 4 5 5 3 3 3 5 4 2 2 0 nan nan nan nan nan nan nan nan nan nan nan nan nan nan nan nan nan nan nan nan nan nan nan nan nan nan 0 0 1 1 2 4 5 6 6 8 9 9 9 10 12 13 13 16 17 17 20 23 23 23 23
8 7 7 8 8 9 8 11 9 9 15 24 15 15 8 7 6 6 6 7 7 9 10 8 8 8 6 5 3 3 4 5 2 2 0 nan nan nan nan nan nan nan nan nan nan nan nan nan nan nan nan nan nan nan nan nan nan nan nan nan nan 0 0 1 1 2 3 5 6 6 8 9 9 9 11 12 14 14 14 15 15 18 22 23 23 23
5 5 3 5 5 6 9 11 12 12 16 22 13 13 11 7 4 4 2 2 2 5 9 11 11 10 4 3 1 1 1 1 0 0 nan nan nan nan nan nan nan nan nan nan nan nan nan nan nan nan nan nan nan nan nan nan nan nan nan nan nan nan 0 1 1 2 3 4 6 6 7 8 9 9 10 11 13 13 14 15 15 18 20 22 22 22
5 4 4 3 3 5 8 9 13 13 12 10 6 6 11 3 nan nan 0 2 2 6 3 6 6 3 1 0 nan nan nan nan 0 0 nan nan nan nan nan nan nan nan nan nan nan nan nan nan nan nan nan nan nan nan nan nan nan nan nan 0 0 nan 0 0 0 2 3 4 4 4 6 6 7 7 8 9 12 12 13 14 14 17 20 19 19 21
1 1 1 3 3 7 8 7 7 7 6 7 6 6 9 3 10 10 19 25 25 16 4 3 3 0 0 nan nan nan nan nan nan nan nan nan nan nan nan nan nan nan nan nan nan nan nan nan nan nan nan nan nan nan nan nan nan nan nan 0 0 0 0 1 1 2 2 3 3 3 4 5 6 6 7 9 10 10 12 13 13 16 18 17 17 19
2 2 2 5 5 13 15 14 12 12 10 1 7 7 5 7 30 30 31 18 18 8 2 1 1 0 nan nan nan nan nan nan nan nan nan nan nan nan nan nan nan nan nan nan nan nan nan nan nan nan nan nan nan nan nan nan nan nan nan nan nan 0 0 1 1 1 2 2 3 3 4 5 6 6 7 8 10 10 12 14 14 15 17 16 16 17
12 15 18 21 21 22 25 24 27 27 37 32 31 31 23 17 9 9 8 5 5 4 1 0 0 0 0 nan nan nan nan nan nan nan nan nan nan nan nan nan nan nan nan nan nan nan nan nan nan nan nan nan nan nan nan nan nan nan nan nan nan 0 0 1 1 1 1 2 3 3 3 4 6 6 6 7 9 9 11 13 13 14 16 15 15 17
22 27 32 33 33 34 37 42 53 53 70 89 94 94 40 12 4 4 4 5 5 2 1 1 1 2 1 nan nan nan nan nan nan nan nan nan nan nan nan nan nan nan nan nan nan nan nan nan nan nan nan nan nan nan nan nan nan nan nan nan nan nan 0 0 0 1 1 2 2 2 3 3 4 4 5 6 8 8 10 11 11 12 13 11 11 6
22 27 30 31 31 34 38 49 67 67 72 47 15 15 10 7 3 3 3 3 3 2 2 2 2 2 2 0 nan nan nan nan nan nan nan nan nan nan nan nan nan nan nan nan nan nan nan nan nan nan nan nan nan nan nan nan nan nan nan nan nan nan nan nan nan 0 0 1 1 1 2 3 3 3 4 5 6 6 8 9 9 11 10 8 8 5
18 21 24 25 25 24 28 37 49 49 38 14 8 8 5 5 3 3 5 2 2 1 3 4 4 4 2 0 nan nan nan nan nan nan nan nan nan nan nan nan nan nan nan nan nan nan nan nan nan nan nan nan nan nan nan nan nan nan nan nan nan nan nan nan nan nan 0 0 1 1 2 2 3 3 3 4 5 5 6 7 7 8 5 4 4 3
11 11 9 10 10 13 19 25 25 25 14 7 2 2 1 0 1 1 1 0 0 0 1 2 2 2 1 nan nan nan nan nan nan nan nan nan nan nan nan nan nan nan nan nan nan nan nan nan nan nan nan nan nan nan nan nan nan nan nan nan nan nan nan nan nan nan nan 0 1 1 1 1 2 2 2 2 3 3 4 6 6 7 3 2 2 3
7 5 5 6 6 9 6 1 nan nan nan nan nan nan nan nan nan nan nan nan nan nan nan nan nan nan nan nan nan nan nan nan nan nan nan nan nan nan nan nan nan nan nan 0 0 nan nan nan nan nan nan nan nan nan nan nan nan nan nan nan nan nan nan nan nan nan nan nan 0 0 1 0 1 1 1 1 2 2 3 5 5 6 3 3 3 3
7 6 11 12 12 9 3 nan nan nan nan nan nan nan nan nan nan nan nan nan nan nan nan nan nan nan nan nan nan nan nan nan nan nan 0 nan nan nan nan nan nan nan nan nan nan 0 nan nan nan nan nan nan nan nan nan nan nan nan nan nan nan nan nan nan nan nan nan nan nan nan 0 0 1 1 1 1 2 2 3 4 4 5 7 3 3 4
9 16 19 13 13 6 0 nan nan nan nan nan nan nan nan nan nan nan nan nan nan nan nan nan nan nan nan nan nan nan nan nan nan nan 1 0 0 0 nan nan nan nan 0 0 0 0 0 nan nan nan nan nan nan nan nan nan nan nan nan nan nan nan nan nan nan nan nan nan nan nan nan nan 1 1 0 0 1 1 2 4 4 6 10 9 9 6
11 16 12 5 5 2 0 0 nan nan nan nan nan nan nan nan nan nan nan nan nan nan nan nan nan nan nan nan nan nan nan nan nan nan 1 0 0 0 0 0 0 nan 0 0 0 0 0 nan nan nan nan nan nan nan nan nan nan nan nan nan nan nan nan nan nan nan nan nan nan nan nan nan nan nan nan 0 1 1 3 5 5 7 9 13 13 11
9 13 6 1 1 1 1 1 0 0 0 nan nan nan nan nan nan nan nan nan nan nan nan nan nan nan nan nan nan nan nan nan nan nan 1 1 0 0 0 0 0 0 1 1 1 1 0 0 0 1 0 nan nan nan nan nan nan nan nan nan nan nan nan nan nan nan nan nan nan nan nan nan nan nan nan 0 2 2 3 5 5 6 8 12 12 13
1 0 0 1 1 2 2 1 0 0 nan nan nan nan nan nan nan nan nan nan nan nan nan 0 0 0 1 0 0 0 nan nan 0 0 1 4 2 2 1 1 1 2 2 2 2 2 1 1 1 1 0 nan nan nan nan nan nan nan nan nan nan nan nan nan nan nan nan nan nan nan nan nan nan nan nan 1 2 2 4 6 6 6 7 9 9 14
0 0 0 1 1 1 0 0 nan nan nan nan nan nan nan nan nan nan nan 0 0 3 0 nan nan 0 4 5 2 2 0 1 1 1 3 5 4 4 2 2 2 3 3 2 2 4 3 2 2 0 0 nan nan nan nan nan nan nan nan nan nan nan nan nan nan nan nan nan nan nan nan nan nan nan nan 0 0 0 0 0 0 4 8 8 8 12
nan nan 0 2 2 1 0 nan nan nan nan nan nan nan nan nan 0 0 0 0 0 1 1 0 0 0 5 10 7 7 5 7 6 6 7 8 5 5 4 3 3 2 4 4 4 5 4 2 2 1 1 0 nan nan nan nan nan nan nan nan nan nan nan nan nan nan nan nan nan nan nan nan nan nan nan nan 0 0 1 0 0 3 5 3 3 7
0 0 1 3 3 1 0 0 nan nan nan nan nan nan nan nan nan nan 1 nan nan nan 0 0 0 0 1 2 4 4 6 8 8 8 10 9 8 8 5 4 4 4 5 6 6 4 5 4 4 3 2 1 0 0 nan nan nan nan 0 nan nan nan nan nan nan nan nan nan nan nan nan nan nan nan 0 0 1 1 1 0 0 2 5 2 2 1
0 0 1 1 1 1 0 nan nan nan nan nan nan nan nan nan nan nan nan nan nan nan nan nan nan nan 0 0 0 0 1 3 5 5 7 11 11 11 7 6 6 5 4 5 5 5 5 4 4 5 1 2 3 3 2 0 0 1 2 0 0 nan nan 0 0 nan nan nan 0 0 1 1 1 1 1 3 2 2 3 2 2 3 4 1 1 2
5 4 2 0 0 0 nan nan nan nan nan nan nan nan nan nan nan nan nan nan nan nan nan nan nan nan nan nan nan nan 0 1 4 4 5 5 6 6 8 7 7 5 6 5 5 5 7 6 6 3 3 2 2 2 1 1 1 1 3 0 0 0 0 1 1 nan nan 0 0 0 3 2 1 1 2 2 1 1 4 5 5 8 7 4 4 4
6 5 3 2 2 nan nan nan nan nan nan nan nan nan nan nan nan nan nan nan nan nan nan nan nan nan nan nan nan nan nan 1 1 1 3 4 5 5 7 6 6 6 6 5 5 5 5 6 6 3 4 3 1 1 1 2 2 2 1 3 3 2 0 nan nan nan nan 0 0 0 1 1 1 1 2 3 3 3 3 8 8 15 11 3 3 3
5 1 nan nan nan nan nan nan nan nan nan nan nan nan nan nan nan nan nan nan nan nan nan nan nan nan nan nan nan nan nan 0 1 1 4 6 6 6 6 6 6 5 6 4 4 5 4 5 5 2 2 3 2 2 2 2 2 2 0 2 2 2 1 nan nan nan 0 0 0 0 1 1 1 1 2 2 2 2 3 2 2 1 7 6 6 3
nan nan nan nan nan nan nan nan nan nan nan nan nan nan nan nan nan nan nan nan nan nan nan nan nan nan nan nan nan nan nan nan 0 0 3 5 10 10 8 7 7 7 6 5 5 6 5 5 5 4 5 4 4 4 2 1 1 1 1 2 2 2 0 1 1 2 1 1 1 1 2 3 3 3 2 3 1 1 1 2 2 2 3 4 4 3
nan nan nan nan nan nan nan nan nan nan nan nan nan nan nan nan nan nan nan nan nan nan nan nan nan nan nan nan nan nan nan nan nan nan nan 1 5 5 6 8 8 8 6 8 8 8 6 4 4 6 4 5 5 5 3 1 1 1 1 3 3 2 0 1 1 2 1 0 2 2 3 6 4 4 4 3 2 2 2 1 1 1 2 2 2 2
nan nan nan nan nan nan nan nan nan nan nan nan nan nan nan nan nan nan nan nan nan nan 0 0 0 0 nan nan nan nan nan nan nan nan nan 0 1 1 2 5 5 9 6 9 9 9 11 9 9 7 4 3 4 4 1 1 1 2 1 1 1 2 1 1 1 1 2 3 2 2 5 10 6 6 4 3 2 2 1 1 1 2 2 2 2 3
nan nan nan nan nan nan nan nan nan nan nan nan nan nan nan nan nan nan nan nan nan 0 2 1 1 0 nan nan nan nan nan nan nan nan 0 0 1 1 2 3 3 5 7 9 9 13 10 12 12 14 9 3 2 2 2 1 1 1 2 3 3 3 1 2 2 2 3 3 5 5 9 7 6 6 5 2 0 0 1 1 1 2 3 3 3 3
nan nan nan nan nan nan nan nan nan nan nan nan nan nan nan nan 1 1 0 0 0 1 1 1 1 0 0 nan nan nan 0 0 0 0 1 1 1 1 2 4 4 5 5 7 7 7 8 13 13 13 5 4 2 2 3 2 2 1 2 2 2 3 3 3 3 3 4 4 9 9 16 5 3 3 3 2 1 1 1 1 1 1 2 3 3 3
nan nan nan nan nan nan nan nan nan nan nan nan nan nan nan nan nan nan 0 1 1 1 1 0 0 0 0 nan nan nan 0 0 0 0 1 1 2 2 3 5 5 5 5 5 5 6 6 11 11 16 18 9 4 4 4 3 3 3 3 3 3 4 5 4 4 3 2 3 4 4 12 7 2 2 3 2 1 1 1 2 2 2 2 2 2 3
0 nan nan nan nan nan nan nan nan nan nan nan nan nan nan nan nan nan 0 1 1 1 1 1 1 0 0 0 0 0 0 0 1 1 2 1 3 3 5 5 5 5 5 5 5 5 3 4 4 4 9 19 10 10 2 3 3 4 4 4 4 4 3 1 1 1 3 3 2 2 4 4 2 2 3 2 1 1 1 1 1 2 1 2 2 3
CIN
nan nan nan nan nan nan nan nan nan nan nan nan nan nan nan nan nan nan nan nan nan nan nan nan nan nan nan nan nan nan nan nan nan nan nan nan nan nan nan nan nan nan nan nan nan nan -0 -0 -0 -0 -0 -0 -0 -0 -0 -0 -0 -0 -0 -0 -0 -0 -0 -0 -0 -0 -0 -0 -0 -0 -0 -0 -0 -0 -0 -0 -0 -0 -0 -0 -0 -0 -0 -0 -0 -0
nan nan nan nan nan nan nan nan nan nan nan nan nan nan nan nan nan nan nan nan nan nan nan nan nan nan nan nan nan nan nan nan nan nan nan nan nan nan nan nan nan nan nan nan nan nan nan -0 -0 -0 -0 -0 -0 -0 -0 -0 -0 -0 -0 -0 -0 -0 -0 -0 -0 -0 -0 -0 -0 -0 -0 -0 -0 -0 -0 -0 -0 -0 -0 -0 -0 -0 -0 -0 -0 -0
nan nan nan nan nan nan nan nan nan nan nan nan nan nan nan nan nan nan nan nan nan nan nan nan nan nan nan nan nan nan nan nan nan nan nan -0 nan nan nan nan nan nan nan nan nan nan nan nan nan -0 -0 -0 -0 -0 -0 -0 -0 -0 -0 -0 -0 -0 -0 -0 -0 -0 -0 -0 -0 -0 -0 -0 -0 -0 -0 -0 -0 -0 -0 -0 -0 -0 -0 -0 -0 -0
nan nan nan nan nan nan nan nan nan nan nan nan nan nan nan nan nan nan nan nan nan nan nan nan nan nan nan nan nan nan nan nan nan nan nan nan nan nan nan nan nan nan nan nan nan nan nan nan nan nan -0 -0 -0 -0 -0 -0 -0 -0 -0 -0 -0 -0 -0 -0 -0 -0 -0 -0 -0 -0 -0 -0 -0 -0 -0 -0 -0 -0 -0 -0 -0 -0 -0 -0 -0 -0
nan nan nan nan nan nan nan nan nan nan nan nan nan nan nan nan nan nan nan nan nan nan nan nan nan nan nan nan nan nan nan nan nan nan nan nan nan nan nan nan nan nan nan nan nan nan nan nan nan nan nan -0 -0 -0 -0 -0 -0 -0 -0 -0 -0 -0 -0 -0 -0 -0 -0 -0 -0 -0 -0 -0 -0 -0 -0 -0 -0 -0 -0 -0 -0 -0 -0 -0 -0 -0
nan nan nan nan nan nan nan nan nan nan nan nan nan nan nan nan nan nan nan nan nan nan nan nan nan nan nan nan nan nan nan nan nan nan nan nan nan nan nan nan nan nan nan nan nan nan nan nan nan nan nan nan -0 -0 -0 -0 -0 -0 -0 -0 -0 -0 -0 -0 -0 -0 -0 -0 -0 -0 -0 -0 -0 -0 -0 -0 -0 -0 -0 -0 -0 -0 -0 -0 -0 -0
nan nan nan nan nan nan nan nan nan nan nan nan nan nan nan nan nan nan nan nan nan nan nan nan nan nan nan nan nan nan nan nan nan nan nan nan nan nan nan nan nan nan nan nan nan nan nan nan nan nan nan nan nan nan -0 -0 -0 -0 -0 -0 -0 -0 -0 -0 -0 -0 -0 -0 -0 -0 -0 -0 -0 -0 -0 -0 -0 -0 -0 -0 -0 -0 -0 -0 -0 -0
nan nan nan nan nan nan nan nan nan nan nan nan nan nan nan nan nan nan -0 nan nan nan nan nan nan nan nan nan nan nan nan nan nan nan nan nan nan nan nan nan nan nan nan nan nan nan nan nan nan nan nan nan nan nan nan nan nan nan -0 -0 -0 -0 -0 -0 -0 -0 -0 -0 -0 -0 -0 -0 -0 -0 -0 -0 -0 -0 -0 -0 -0 -0 -0 -0 -0 -0
-0 -0 nan -0 -0 -0 nan nan nan nan nan nan nan nan nan nan nan nan nan nan nan nan nan nan nan nan nan nan nan nan nan nan nan nan nan nan nan nan nan nan nan nan nan nan nan nan nan nan nan nan nan nan nan nan nan nan nan nan nan nan nan nan nan nan nan -0 -0 -0 -0 -0 -0 -0 -0 -0 -0 -0 -0 -0 -0 -0 -0 -0 -0 -0 -0 -0
-0 -0 -0 -0 -0 -0 nan nan nan nan -0 -0 -0 -0 nan nan nan nan nan nan nan nan nan nan nan nan nan nan nan nan nan nan nan nan nan nan nan nan nan nan nan nan nan nan nan nan nan nan nan nan nan nan nan nan nan nan nan nan nan nan nan nan nan nan nan -0 -0 -0 -0 -0 -0 -0 -0 -0 -0 -0 -0 -0 -0 -0 -0 -0 -0 -0 -0 -0
-0 -0 -0 -0 -0 -0 -0 nan nan nan -0 -0 -0 -0 -0 nan nan nan nan nan nan nan nan nan nan nan nan nan nan nan nan nan nan nan nan nan nan nan nan nan nan nan nan nan nan nan nan nan nan nan nan nan nan nan nan nan nan nan nan nan nan nan nan -0 -0 -0 -0 -0 -0 -0 -0 -0 -0 -0 -0 -0 -0 -0 -0 -0 -0 -0 -0 -0 -0 -0
-0 -0 -0 -0 -0 -0 -0 -0 -0 -0 -0 -0 nan nan nan nan -0 -0 nan nan nan nan nan nan nan nan nan nan nan nan nan nan nan nan nan nan nan nan nan nan nan nan nan nan nan nan nan nan nan nan nan nan nan nan nan nan nan nan nan nan nan nan -0 -0 -0 -0 -0 -0 -0 -0 -0 -0 -0 -0 -0 -0 -0 -0 -0 -0 -0 -0 -0 -0 -0 -0
-0 -0 -0 -0 -0 -0 -0 -0 -0 -0 -0 nan nan nan nan nan nan nan nan nan nan nan nan nan nan nan nan nan nan nan nan nan nan nan nan nan nan nan nan nan nan nan nan nan nan nan nan nan nan nan nan nan nan nan nan nan nan nan nan nan nan nan -0 -0 -0 -0 -0 -0 -0 -0 -0 -0 -0 -0 -0 -0 -0 -0 -0 -0 -0 -0 -0 -0 -0 -0
-0 -0 -0 -0 -0 -0 -0 -0 -0 -0 -0 nan nan nan -0 -0 -0 -0 nan nan nan nan nan nan nan nan nan nan nan nan nan nan nan nan nan nan nan nan nan nan nan nan nan nan nan nan nan nan nan nan nan nan nan nan nan nan nan nan nan nan nan -0 -0 -0 -0 -0 -0 -0 -0 -0 -0 -0 -0 -0 -0 -0 -0 -0 -0 -0 -0 -0 -0 -0 -0 -0
-0 -0 -0 -0 -0 -0 -0 -0 -0 -0 -0 -0 -0 -0 -0 -0 -0 -0 nan nan nan nan nan nan nan nan nan nan nan nan nan nan nan nan nan nan nan nan nan nan nan nan nan nan nan nan nan nan nan nan nan nan nan nan nan nan nan nan nan nan nan -0 -0 -0 -0 -0 -0 -0 -0 -0 -0 -0 -0 -0 -0 -0 -0 -0 -0 -0 -0 -0 -0 -0 -0 -0
-0 -0 -0 -0 -0 -0 -0 -0 -0 -0 -0 -0 -0 -0 -0 -0 nan nan nan nan nan -0 nan nan nan nan nan nan -0 -0 nan -0 nan nan nan nan nan nan nan nan nan nan nan nan nan nan nan nan nan nan nan nan nan nan nan nan nan nan nan nan nan -0 -0 -0 -0 -0 -0 -0 -0 -0 -0 -0 -0 -0 -0 -0 -0 -0 -0 -0 -0 -0 -0 -0 -0 -0
-0 -0 -0 -0 -0 -0 -0 -0 -0 -0 -0 -0 -0 -0 -0 -0 -0 -0 -0 -0 -0 -0 -0 -0 -0 nan nan nan -0 -0 -0 -0 nan nan nan nan nan nan nan nan nan nan nan nan nan nan nan nan nan nan nan nan nan nan nan nan nan nan nan -0 -0 -0 -0 -0 -0 -0 -0 -0 -0 -0 -0 -0 -0 -0 -0 -0 -0 -0 -0 -0 -0 -0 -0 -0 -0 -0
-0 -0 -0 -0 -0 -0 -0 -0 -0 -0 -0 -0 -0 -0 -0 -0 -0 -0 -0 -0 -0 -0 -0 -0 -0 -0 nan nan nan nan -0 -0 nan nan nan nan nan nan nan nan nan nan nan nan nan nan nan nan nan nan nan nan nan nan nan nan nan nan nan -0 -0 -0 -0 -0 -0 -0 -0 -0 -0 -0 -0 -0 -0 -0 -0 -0 -0 -0 -0 -0 -0 -0 -0 -0 -0 -0
-0 -0 -0 -0 -0 -0 -0 -0 -0 -0 -0 -0 -0 -0 -0 -0 -0 -0 -0 -0 -0 -0 -0 -0 -0 -0 -0 -0 nan nan -0 -0 -0 -0 nan nan nan nan nan nan nan nan nan nan nan nan nan nan nan nan nan nan nan nan nan nan nan nan nan nan nan -0 -0 -0 -0 -0 -0 -0 -0 -0 -0 -0 -0 -0 -0 -0 -0 -0 -0 -0 -0 -0 -0 -0 -0 -0
-0 -0 -0 -0 -0 -0 -0 -0 -0 -0 -0 -0 -0 -0 -0 -0 -0 -0 -0 -0 -0 -0 -0 -0 -0 -0 -0 -0 -0 -0 -0 -0 -0 -0 -0 nan nan nan nan nan nan nan nan nan nan nan nan nan nan nan nan nan nan nan nan nan nan nan nan nan nan -0 -0 -0 -0 -0 -0 -0 -0 -0 -0 -0 -0 -0 -0 -0 -0 -0 -0 -0 -0 -0 -0 -0 -0 -0
-0 -0 -0 -0 -0 -0 -0 -0 -0 -0 -0 -0 -0 -0 -0 -0 -0 -0 -0 -0 -0 -0 -0 -0 -0 -0 -0 -0 -0 -0 -0 -0 -0 -0 -0 nan nan nan nan nan nan nan nan nan nan nan nan nan nan nan nan nan nan nan nan nan nan nan nan nan nan -0 -0 -0 -0 -0 -0 -0 -0 -0 -0 -0 -0 -0 -0 -0 -0 -0 -0 -0 -0 -0 -0 -0 -0 -0
-0 -0 -0 -0 -0 -0 -0 -0 -0 -0 -0 -0 -0 -0 -0 -0 -0 -0 -0 -0 -0 -0 -0 -0 -0 -0 -0 -0 -0 -0 -0 -0 -0 -0 -0 nan nan nan nan nan nan nan nan nan nan nan nan nan nan nan nan nan nan nan nan nan nan nan nan nan nan -0 -0 -0 -0 -0 -0 -0 -0 -0 -0 -0 -0 -0 -0 -0 -0 -0 -0 -0 -0 -0 -0 -0 -0 -0
-0 -0 -0 -0 -0 -0 -0 -0 -0 -0 -0 -0 -0 -0 -0 -0 -0 -0 -0 -0 -0 -0 -0 -0 -0 -0 -0 -0 -0 -0 -0 -0 -0 -0 nan nan nan nan nan nan nan nan nan nan nan nan nan nan nan nan nan nan nan nan nan nan nan nan nan nan nan nan -0 -0 -0 -0 -0 -0 -0 -0 -0 -0 -0 -0 -0 -0 -0 -0 -0 -0 -0 -0 -0 -0 -0 -0
-0 -0 -0 -0 -0 -0 -0 -0 -0 -0 -0 -0 -0 -0 -0 -0 nan nan -0 -0 -0 -0 -0 -0 -0 -0 -0 -0 nan nan nan nan -0 -0 nan nan nan nan nan nan nan nan nan nan nan nan nan nan nan nan nan nan nan nan nan nan nan nan nan -0 -0 nan -0 -0 -0 -0 -0 -0 -0 -0 -0 -0 -0 -0 -0 -0 -0 -0 -0 -0 -0 -0 -0 -0 -0 -0
-0 -0 -0 -0 -0 -0 -0 -0 -0 -0 -0 -0 -0 -0 -0 -2 -0 -0 -0 -0 -0 -0 -0 -0 -0 -0 -0 nan nan nan nan nan nan nan nan nan nan nan nan nan nan nan nan nan nan nan nan nan nan nan nan nan nan nan nan nan nan nan nan -0 -0 -0 -0 -0 -0 -0 -0 -0 -0 -0 -0 -0 -0 -0 -0 -0 -0 -0 -0 -0 -0 -0 -0 -0 -0 -0
-0 -0 -0 -0 -0 -0 -0 -0 -0 -0 -0 -0 -0 -0 -2 -1 -0 -0 -0 -0 -0 -0 -0 -0 -0 -0 nan nan nan nan nan nan nan nan nan nan nan nan nan nan nan nan nan nan nan nan nan nan nan nan nan nan nan nan nan nan nan nan nan nan nan -0 -0 -0 -0 -0 -0 -0 -0 -0 -0 -0 -0 -0 -0 -0 -0 -0 -0 -0 -0 -0 -0 -0 -0 -0
-0 -0 -0 -0 -0 -0 -0 -0 -0 -0 -0 -0 -1 -1 -0 -0 -0 -0 -0 -0 -0 -0 -0 -0 -0 -0 -0 nan nan nan nan nan nan nan nan nan nan nan nan nan nan nan nan nan nan nan nan nan nan nan nan nan nan nan nan nan nan nan nan nan nan -0 -0 -0 -0 -0 -0 -0 -0 -0 -0 -0 -0 -0 -0 -0 -0 -0 -0 -0 -0 -0 -0 -0 -0 -0
-0 -0 -0 -0 -0 -0 -0 -0 -0 -0 -0 -0 -0 -0 -0 -0 -0 -0 -0 -0 -0 -0 -0 -0 -0 -0 -0 nan nan nan nan nan nan nan nan nan nan nan nan nan nan nan nan nan nan nan nan nan nan nan nan nan nan nan nan nan nan nan nan nan nan nan -0 -0 -0 -0 -0 -0 -0 -0 -0 -0 -0 -0 -0 -0 -0 -0 -0 -0 -0 -0 -0 -0 -0 -0
-0 -0 -0 -0 -0 -0 -0 -0 -0 -0 -0 -0 -0 -0 -0 -0 -0 -0 -0 -0 -0 -0 -0 -0 -0 -0 -0 -0 nan nan nan nan nan nan nan nan nan nan nan nan nan nan nan nan nan nan nan nan nan nan nan nan nan nan nan nan nan nan nan nan nan nan nan nan nan -0 -0 -0 -0 -0 -0 -0 -0 -0 -0 -0 -0 -0 -0 -0 -0 -0 -0 -0 -0 -0
-0 -0 -0 -0 -0 -0 -0 -0 -0 -0 -0 -0 -0 -0 -0 -0 -0 -0 -0 -0 -0 -0 -0 -0 -0 -0 -0 -0 nan nan nan nan nan nan nan nan nan nan nan nan nan nan nan nan nan nan nan nan nan nan nan nan nan nan nan nan nan nan nan nan nan nan nan nan nan nan -0 -0 -0 -0 -0 -0 -0 -0 -0 -0 -0 -0 -0 -0 -0 -0 -0 -0 -0 -0
-0 -0 -0 -0 -0 -0 -0 -0 -0 -0 -0 -0 -0 -0 -0 -0 -0 -0 -0 -0 -0 -0 -0 -0 -0 -0 -0 nan nan nan nan nan nan nan nan nan nan nan nan nan nan nan nan nan nan nan nan nan nan nan nan nan nan nan nan nan nan nan nan nan nan nan nan nan nan nan nan -0 -0 -0 -0 -0 -0 -0 -0 -0 -0 -0 -0 -0 -0 -0 -0 -0 -0 -0
-0 -0 -0 -0 -0 -0 -0 -0 nan nan nan nan nan nan nan nan nan nan nan nan nan nan nan nan nan nan nan nan nan nan nan nan nan nan nan nan nan nan nan nan nan nan nan -0 -0 nan nan nan nan nan nan nan nan nan nan nan nan nan nan nan nan nan nan nan nan nan nan nan -0 -0 -0 -0 -0 -0 -0 -0 -0 -0 -0 -0 -0 -0 -0 -0 -0 -0
-0 -0 -0 -0 -0 -0 -0 nan nan nan nan nan nan nan nan nan nan nan nan nan nan nan nan nan nan nan nan nan nan nan nan nan nan nan -0 nan nan nan nan nan nan nan nan nan nan -0 nan nan nan nan nan nan nan nan nan nan nan nan nan nan nan nan nan nan nan nan nan nan nan nan -0 -0 -0 -0 -0 -0 -0 -0 -0 -0 -0 -0 -0 -0 -0 -0
-0 -0 -0 -0 -0 -0 -0 nan nan nan nan nan nan nan nan nan nan nan nan nan nan nan nan nan nan nan nan nan nan nan nan nan nan nan -0 -0 -0 -0 nan nan nan nan -0 -0 -0 -0 -0 nan nan nan nan nan nan nan nan nan nan nan nan nan nan nan nan nan nan nan nan nan nan nan nan nan -0 -0 -0 -0 -0 -0 -0 -0 -0 -0 -0 -0 -0 -0
-0 -0 -0 -0 -0 -0 -0 -0 nan nan nan nan nan nan nan nan nan nan nan nan nan nan nan nan nan nan nan nan nan nan nan nan nan nan -0 -0 -0 -0 -0 -0 -0 nan -0 -0 -0 -0 -0 nan nan nan nan nan nan nan nan nan nan nan nan nan nan nan nan nan nan nan nan nan nan nan nan nan nan nan nan -0 -0 -0 -0 -0 -0 -0 -0 -0 -0 -0
-0 -0 -0 -0 -0 -0 -0 -0 -0 -0 -0 nan nan nan nan nan nan nan nan nan nan nan nan nan nan nan nan nan nan nan nan nan nan nan -0 -0 -0 -0 -0 -0 -0 -0 -0 -0 -0 -0 -0 -0 -0 -0 -0 nan nan nan nan nan nan nan nan nan nan nan nan nan nan nan nan nan nan nan nan nan nan nan nan -0 -0 -0 -0 -0 -0 -0 -0 -0 -0 -0
-0 -0 -0 -0 -0 -0 -0 -0 -0 -0 nan nan nan nan nan nan nan nan nan nan nan nan nan -0 -0 -0 -0 -0 -0 -0 nan nan -0 -0 -0 -0 -0 -0 -0 -0 -0 -0 -0 -0 -0 -0 -0 -0 -0 -0 -0 nan nan nan nan nan nan nan nan nan nan nan nan nan nan nan nan nan nan nan nan nan nan nan nan -0 -0 -0 -0 -0 -0 -0 -0 -0 -0 -0
-0 -0 -0 -0 -0 -0 -0 -0 nan nan nan nan nan nan nan nan nan nan nan -0 -0 -0 -0 nan nan -0 -0 -0 -0 -0 -0 -0 -0 -0 -0 -0 -0 -0 -0 -0 -0 -0 -0 -0 -0 -0 -0 -0 -0 -0 -0 nan nan nan nan nan nan nan nan nan nan nan nan nan nan nan nan nan nan nan nan nan nan nan nan -0 -0 -0 -0 -0 -0 -0 -0 -0 -0 -0
nan nan -0 -0 -0 -0 -0 nan nan nan nan nan nan nan nan nan -0 -0 -0 -0 -0 -0 -0 -0 -0 -0 -0 -0 -0 -0 -0 -0 -0 -0 -0 -0 -0 -0 -0 -0 -0 -0 -0 -0 -0 -0 -0 -0 -0 -0 -0 -0 nan nan nan nan nan nan nan nan nan nan nan nan nan nan nan nan nan nan nan nan nan nan nan nan -0 -0 -0 -0 -0 -0 -0 -0 -0 -0
-0 -0 -0 -0 -0 -0 -0 -0 nan nan nan nan nan nan nan nan nan nan -0 nan nan nan -0 -0 -0 -0 -0 -0 -0 -0 -0 -0 -0 -0 -0 -1 -0 -0 -0 -0 -0 -0 -0 -0 -0 -0 -0 -0 -0 -0 -0 -0 -0 -0 nan nan nan nan -0 nan nan nan nan nan nan nan nan nan nan nan nan nan nan nan -0 -0 -0 -0 -0 -0 -0 -0 -0 -0 -0 -0
-0 -0 -0 -0 -0 -0 -0 nan nan nan nan nan nan nan nan nan nan nan nan nan nan nan nan nan nan nan -0 -0 -0 -0 -0 -0 -0 -0 -0 -0 -0 -0 -0 -0 -0 -0 -0 -0 -0 -0 -0 -0 -0 -0 -0 -0 -0 -0 -0 -0 -0 -0 -0 -0 -0 nan nan -0 -0 nan nan nan -0 -0 -0 -0 -0 -0 -0 -0 -0 -0 -0 -0 -0 -0 -0 -0 -0 -0
-0 -0 -0 -0 -0 -0 nan nan nan nan nan nan nan nan nan nan nan nan nan nan nan nan nan nan nan nan nan nan nan nan -0 -0 -0 -0 -0 -2 -0 -0 -0 -0 -0 -0 -0 -0 -0 -0 -0 -0 -0 -0 -0 -0 -0 -0 -0 -0 -0 -0 -0 -0 -0 -0 -0 -0 -0 nan nan -0 -0 -0 -0 -0 -0 -0 -0 -0 -0 -0 -0 -0 -0 -0 -0 -0 -0 -0
-0 -0 -0 -0 -0 nan nan nan nan nan nan nan nan nan nan nan nan nan nan nan nan nan nan nan nan nan nan nan nan nan nan -0 -0 -0 -0 -2 -0 -0 -0 -0 -0 -0 -0 -0 -0 -0 -0 -0 -0 -0 -0 -0 -0 -0 -0 -0 -0 -0 -0 -0 -0 -0 -0 nan nan nan nan -0 -0 -0 -0 -0 -0 -0 -0 -0 -1 -1 -2 -0 -0 -0 -0 -0 -0 -0
-0 -0 nan nan nan nan nan nan nan nan nan nan nan nan nan nan nan nan nan nan nan nan nan nan nan nan nan nan nan nan nan -0 -0 -0 -0 -0 -0 -0 -0 -0 -0 -0 -0 -0 -0 -0 -0 -0 -0 -0 -0 -0 -0 -0 -0 -0 -0 -0 -0 -0 -0 -0 -0 nan nan nan -0 -0 -0 -0 -0 -1 -0 -0 -0 -0 -0 -0 -1 -0 -0 -0 -0 -0 -0 -0
nan nan nan nan nan nan nan nan nan nan nan nan nan nan nan nan nan nan nan nan nan nan nan nan nan nan nan nan nan nan nan nan -0 -0 -0 -0 -0 -0 -0 -0 -0 -0 -0 -0 -0 -0 -0 -0 -0 -0 -0 -0 -0 -0 -0 -0 -0 -0 -0 -0 -0 -0 -0 -0 -0 -0 -0 -0 -0 -0 -1 -8 -6 -6 -0 -0 -0 -0 -0 -0 -0 -1 -0 -0 -0 -0
nan nan nan nan nan nan nan nan nan nan nan nan nan nan nan nan nan nan nan nan nan nan nan nan nan nan nan nan nan nan nan nan nan nan nan -0 -0 -0 -0 -0 -0 -0 -0 -0 -0 -0 -0 -0 -0 -0 -0 -0 -0 -0 -0 -0 -0 -0 -0 -0 -0 -0 -0 -0 -0 -0 -0 -0 -0 -0 -0 -2 -0 -0 -0 -0 -0 -0 -0 -1 -1 -1 -0 -0 -0 -0
nan nan nan nan nan nan nan nan nan nan nan nan nan nan nan nan nan nan nan nan nan nan -0 -0 -0 -0 nan nan nan nan nan nan nan nan nan -0 -0 -0 -0 -0 -0 -0 -0 -0 -0 -0 -0 -0 -0 -0 -0 -0 -0 -0 -0 -0 -0 -0 -0 -0 -0 -0 -0 -0 -0 -0 -0 -0 -0 -0 -2 -6 -0 -0 -0 -0 -0 -0 -0 -0 -0 -0 -0 -0 -0 -0
nan nan nan nan nan nan nan nan nan nan nan nan nan nan nan nan nan nan nan nan nan -0 -0 -0 -0 -0 nan nan nan nan nan nan nan nan -0 -0 -0 -0 -0 -0 -0 -0 -0 -0 -0 -0 -0 -0 -0 -0 -0 -0 -0 -0 -0 -0 -0 -0 -0 -0 -0 -0 -0 -0 -0 -0 -0 -0 -12 -12 -10 -3 -0 -0 -0 -0 -0 -0 -0 -0 -0 -0 -0 -0 -0 -0
nan nan nan nan nan nan nan nan nan nan nan nan nan nan nan nan -0 -0 -0 -0 -0 -0 -0 -0 -0 -0 -0 nan nan nan -0 -0 -0 -0 -0 -0 -0 -0 -0 -0 -0 -0 -0 -0 -0 -0 -0 -0 -0 -0 -0 -0 -0 -0 -0 -0 -0 -0 -0 -0 -0 -0 -0 -0 -0 -0 -0 -5 -21 -21 -11 -0 -0 -0 -0 -0 -0 -0 -0 -0 -0 -0 -0 -0 -0 -0
nan nan nan nan nan nan nan nan nan nan nan nan nan nan nan nan nan nan -0 -0 -0 -0 -0 -0 -0 -0 -0 nan nan nan -0 -0 -0 -0 -0 -0 -0 -0 -0 -0 -0 -0 -0 -0 -0 -0 -0 -0 -0 -0 -0 -0 -0 -0 -0 -0 -0 -0 -0 -0 -0 -0 -0 -0 -0 -0 -0 -0 -24 -24 -13 -4 -4 -4 -0 -0 -0 -0 -0 -0 -0 -0 -0 -0 -0 -0
-0 nan nan nan nan nan nan nan nan nan nan nan nan nan nan nan nan nan -0 -0 -0 -0 -0 -0 -0 -0 -0 -0 -0 -0 -0 -0 -0 -0 -0 -0 -0 -0 -0 -0 -0 -0 -0 -0 -0 -0 -0 -0 -0 -0 -0 -0 -0 -0 -0 -0 -0 -0 -0 -0 -0 -0 -0 -0 -0 -0 -0 -0 -14 -14 -20 -11 -3 -3 -0 -0 -1 -1 -0 -0 -0 -0 -0 -0 -0 -0
Wind_Speed
3 3 4 5 5 5 5 6 7 6 6 5 5 5 5 5 5 6 7 7 7 7 7 7 7 7 8 9 10 10 11 11 12 12 11 11 10 10 9 8 8 8 8 8 8 9 9 10 11 11 12 12 13 13 14 14 15 15 16 16 16 16 16 17 17 17 17 16 16 16 16 16 16 16 15 16 16 16 16 16 16 16 17 17 17 17
3 3 3 5 5 5 5 6 6 6 6 6 6 6 6 6 6 5 5 6 6 6 6 6 7 8 9 9 10 10 11 11 12 12 12 11 11 10 9 8 8 8 8 8 8 9 9 10 11 11 12 13 13 13 14 14 15 15 16 16 16 16 17 17 17 17 17 17 16 16 16 16 16 16 16 16 16 16 16 16 16 17 17 17 17 17
4 4 3 4 5 5 5 6 6 6 6 6 6 7 8 8 7 6 5 5 5 5 5 6 6 7 9 9 9 10 11 12 12 13 12 12 11 10 9 9 8 8 8 8 9 9 10 10 11 12 12 13 13 14 14 15 15 15 16 16 16 16 16 16 16 16 16 16 16 16 16 16 16 16 16 16 16 16 16 16 17 17 17 17 17 17
4 4 4 4 4 5 5 5 5 5 5 6 7 8 8 7 6 5 5 5 5 5 5 6 6 7 7 7 8 9 11 12 13 13 13 12 11 10 9 9 8 8 8 8 9 9 10 11 11 12 13 13 13 14 14 15 15 15 15 16 16 16 16 16 16 16 16 16 16 16 16 16 16 16 16 16 16 16 16 17 17 17 17 17 17 17
4 4 4 3 4 4 5 5 5 5 5 6 6 7 7 6 6 5 5 5 5 5 5 5 6 7 6 6 8 9 11 12 13 13 13 12 11 10 10 9 9 8 9 9 9 10 11 11 12 12 13 13 14 14 14 15 15 15 15 15 15 16 16 16 16 16 16 16 16 16 16 16 16 16 16 16 17 17 17 17 17 17 17 17 17 18
4 4 4 3 4 4 4 5 5 5 5 5 5 6 6 5 5 5 5 5 5 5 5 5 5 6 7 7 8 10 11 12 13 13 13 12 11 10 10 9 9 9 9 10 10 10 11 12 12 13 13 14 14 14 15 15 15 15 15 15 15 15 15 15 16 16 16 16 16 16 16 16 16 16 16 17 17 17 17 17 17 17 17 17 18 18
4 4 4 4 4 4 4 4 5 5 4 4 4 5 5 5 5 5 5 5 5 5 5 5 5 6 6 7 8 10 11 11 12 12 12 11 10 10 9 9 9 9 10 10 11 11 12 12 13 13 14 14 14 14 15 15 15 15 15 15 15 15 15 15 16 16 16 16 16 16 16 16 17 17 17 17 17 17 17 18 18 18 18 18 18 18
5 5 5 4 4 4 4 4 4 4 4 4 4 4 5 4 4 4 5 5 5 5 5 5 5 5 6 6 7 8 8 9 9 9 9 9 9 9 9 9 10 10 11 11 11 12 12 13 13 13 14 14 14 14 14 14 14 15 15 15 15 15 15 16 16 16 16 16 17 17 17 17 17 17 17 17 17 18 18 18 18 18 18 18 19 19
6 6 5 5 5 5 5 4 4 4 4 4 4 5 5 5 5 4 4 4 4 4 4 5 5 5 5 6 6 7 7 7 7 7 7 7 8 8 9 10 10 11 11 12 12 12 13 13 13 13 13 13 14 14 14 14 14 14 14 14 15 15 15 16 16 16 17 17 17 17 17 17 17 17 17 18 18 18 18 18 18 18 19 19 19 19
6 6 6 5 5 5 5 5 4 4 4 5 5 5 5 5 5 4 4 4 4 4 4 5 5 6 6 6 6 6 7 7 8 9 9 8 9 9 10 10 10 10 11 12 12 12 13 13 13 13 13 13 13 13 13 13 13 13 14 14 15 15 16 16 16 17 17 17 17 17 17 17 18 18 18 18 18 18 18 18 18 19 19 19 19 20
5 6 5 5 4 4 4 4 4 4 5 5 5 5 5 4 4 5 5 5 5 4 4 5 5 6 6 6 6 6 6 6 7 7 8 9 9 10 10 10 10 10 11 11 12 12 12 12 12 12 12 12 12 12 12 12 13 13 13 14 15 15 16 16 17 17 17 17 18 18 18 18 18 18 18 18 19 19 19 19 19 19 19 19 19 20
5 4 4 4 4 4 4 4 4 4 4 4 4 4 4 3 3 4 5 6 6 6 5 5 5 5 6 6 6 5 5 5 5 5 6 7 7 8 8 8 8 9 9 10 10 10 11 11 11 11 11 11 11 11 11 11 12 12 13 14 15 15 16 16 17 17 18 18 18 18 18 18 19 19 19 19 19 19 19 19 19 19 19 19 20 20
4 4 3 4 4 4 4 4 3 3 3 4 4 4 3 3 3 4 4 6 6 6 6 6 6 6 6 6 5 4 4 5 5 5 5 5 6 6 6 6 6 6 7 7 7 7 9 9 10 10 10 10 10 11 11 11 11 12 13 14 15 16 16 17 17 18 18 18 18 19 19 19 19 19 19 19 19 19 19 19 19 19 19 19 20 20
4 4 4 4 4 4 4 4 4 4 4 3 3 3 3 3 4 4 4 5 6 6 6 6 6 6 5 5 5 4 4 4 4 5 5 5 5 5 5 6 6 6 6 6 6 6 7 8 8 8 9 9 9 10 10 10 11 13 14 15 16 16 17 18 18 18 19 19 19 19 19 19 19 19 19 19 19 19 19 19 19 19 19 20 20 20
5 5 5 5 5 4 4 4 4 4 4 4 3 3 3 4 4 4 5 5 6 6 6 7 7 6 4 4 3 2 3 3 4 5 6 5 5 5 6 6 6 6 6 6 6 6 7 7 6 6 7 8 8 9 9 10 12 14 15 16 17 17 18 18 18 19 19 19 19 19 19 19 19 19 19 19 19 20 20 20 20 20 20 20 20 20
5 5 6 6 5 5 4 4 4 4 4 4 3 3 4 4 4 4 4 5 5 5 5 6 6 5 4 3 2 1 2 3 4 5 6 6 6 5 6 7 7 7 6 6 6 6 6 6 6 6 6 8 9 10 11 12 13 15 16 17 17 18 18 19 19 19 19 19 19 19 19 19 20 19 20 20 20 20 20 20 20 20 20 20 20 20
5 5 6 6 5 5 4 4 4 4 4 4 3 3 4 4 4 4 4 4 4 4 4 5 5 5 4 3 2 1 2 3 4 5 7 7 6 6 6 6 7 7 7 6 6 6 6 6 6 6 6 8 10 11 12 13 15 16 17 17 18 18 19 19 19 19 19 20 20 20 20 20 20 20 20 20 20 20 20 20 20 20 20 20 20 20
6 5 5 6 5 5 4 4 4 4 4 4 4 4 4 4 4 4 4 4 4 4 4 4 4 4 4 4 3 3 4 5 6 6 7 7 7 6 6 6 7 7 7 7 7 6 6 6 6 6 7 10 11 13 14 15 15 16 17 17 18 18 19 19 19 20 20 20 20 20 20 20 20 20 20 20 20 20 20 20 20 20 20 20 20 20
5 5 5 5 5 4 4 4 3 3 3 3 4 4 5 5 4 4 4 4 4 5 5 5 5 4 4 5 5 5 6 6 7 7 8 8 7 6 6 6 7 7 7 7 7 6 6 6 7 8 10 12 13 14 14 15 16 16 17 18 18 19 19 19 20 20 20 20 20 20 20 20 20 20 20 20 20 20 20 20 20 20 21 21 21 21
6 5 5 5 5 5 5 4 4 3 3 3 4 4 5 5 5 5 5 5 5 5 5 5 5 5 5 6 6 6 6 7 7 8 8 8 8 7 6 6 7 7 7 7 6 6 6 6 7 8 10 12 13 14 14 15 16 17 18 18 19 19 19 19 19 20 20 20 20 20 20 20 20 20 20 20 20 20 20 20 21 21 21 21 21 21
6 6 6 4 4 4 4 4 4 4 4 4 4 5 5 5 5 5 5 5 5 5 5 5 5 5 5 6 6 7 7 7 7 7 6 7 7 6 5 6 7 7 8 7 6 6 6 7 7 7 9 11 13 14 15 16 17 17 18 18 19 19 19 19 19 19 19 20 20 20 20 20 20 20 20 21 21 21 21 21 21 21 21 21 22 22
7 7 7 6 6 5 5 5 5 5 5 5 5 5 5 5 5 6 5 5 5 6 6 5 5 5 6 7 7 8 8 7 7 6 5 6 7 7 5 6 6 7 8 7 7 6 7 7 7 7 9 12 14 15 16 16 17 17 18 18 18 18 19 19 19 19 19 20 20 20 20 20 21 21 21 21 21 21 21 21 21 21 22 22 22 22
8 8 8 8 7 7 6 6 5 5 5 6 6 5 5 5 5 6 5 5 5 5 5 5 5 6 6 7 8 8 7 7 6 6 5 7 7 7 5 6 6 7 7 7 7 7 7 7 7 8 10 13 15 15 16 16 17 17 17 17 18 18 18 19 19 19 20 20 20 20 21 21 21 21 21 21 21 22 22 22 22 22 22 22 22 22
10 10 9 8 8 7 6 6 6 5 5 6 6 6 6 6 6 5 5 5 5 5 4 4 5 6 7 7 8 7 7 6 5 5 4 6 6 6 5 6 7 8 8 7 7 7 7 7 7 8 9 12 14 15 16 16 16 16 16 17 17 18 18 19 19 19 20 20 20 21 21 21 21 22 22 22 22 22 22 22 22 22 22 22 22 23
9 9 8 8 8 8 8 7 7 7 7 6 6 6 6 6 6 6 5 5 5 4 4 6 7 7 7 7 7 6 6 5 5 4 4 5 6 7 6 6 7 8 8 7 7 7 8 8 8 8 8 10 13 14 15 15 15 15 16 16 17 17 18 19 19 20 20 20 21 21 21 21 22 22 22 22 22 22 22 22 22 22 22 23 23 23
11 11 11 11 12 13 13 13 13 13 13 10 8 6 5 5 4 4 4 4 4 4 5 6 7 7 6 6 6 6 5 5 4 4 4 4 6 6 6 5 6 7 8 7 7 7 8 8 8 8 8 9 10 12 13 14 14 15 15 16 17 18 18 19 19 20 20 20 21 21 21 21 21 22 22 22 22 22 22 22 22 22 23 23 23 22
17 17 18 18 17 17 17 18 19 19 20 17 13 9 5 4 3 3 4 3 4 4 5 6 7 7 7 7 6 6 5 5 4 4 5 5 6 6 5 5 6 7 8 7 7 8 9 9 9 8 8 8 8 9 11 12 13 14 15 16 17 18 18 19 19 20 20 20 20 20 21 21 21 22 22 22 22 22 22 22 22 22 22 22 20 19
21 21 20 20 20 19 19 19 20 20 19 17 14 10 6 3 3 4 4 4 4 5 5 6 7 7 6 7 7 6 6 5 5 5 5 5 5 5 5 5 6 6 7 7 7 8 9 9 9 8 8 7 7 8 9 11 13 14 15 16 17 18 18 18 19 19 19 19 20 20 20 21 21 21 22 22 22 22 22 22 22 22 21 18 14 12
20 20 20 20 20 19 19 19 18 17 14 12 9 7 5 4 4 5 5 4 4 5 6 6 7 7 7 7 7 7 7 6 6 5 4 4 4 5 5 5 5 5 6 6 6 7 7 7 7 7 7 7 7 7 8 10 11 12 14 15 16 17 17 17 18 18 19 19 19 20 20 21 21 21 22 22 22 22 22 22 22 20 16 13 12 10
14 15 16 16 17 16 16 15 13 12 10 9 8 7 6 4 4 4 4 4 4 5 6 7 7 7 7 7 7 7 6 5 3 2 2 3 4 4 4 5 5 5 5 5 5 6 5 5 5 6 6 7 8 7 7 8 9 9 10 12 13 14 15 16 17 17 18 19 19 19 20 20 21 21 21 21 21 22 22 22 20 16 12 11 10 10
10 10 10 11 11 11 10 9 8 7 7 7 6 6 5 4 4 4 4 4 4 5 7 7 7 7 7 6 6 5 4 3 1 1 1 3 3 4 4 5 5 5 4 4 5 5 6 5 4 5 6 8 8 8 8 8 8 8 8 9 10 10 13 14 15 16 17 17 18 19 19 20 20 20 21 21 21 21 21 21 19 15 11 10 10 10
8 8 7 7 7 7 5 5 4 4 5 5 4 4 4 4 4 4 4 4 5 6 7 7 7 8 7 7 6 6 4 4 3 3 3 3 3 4 4 5 5 5 4 4 4 5 6 5 5 5 7 8 8 8 8 8 8 8 8 8 8 9 11 12 13 14 14 15 16 17 18 19 19 20 20 21 21 21 21 21 19 15 11 10 10 10
8 7 7 6 6 5 4 3 3 4 4 4 3 3 3 4 4 4 4 5 5 6 6 7 7 8 8 8 8 7 6 5 5 5 5 4 4 4 4 4 5 5 5 4 5 5 6 6 6 6 7 7 8 8 8 8 9 8 9 9 8 8 10 10 11 11 11 12 13 14 16 17 18 19 19 20 20 20 20 20 19 16 13 11 10 11
8 8 7 6 5 4 4 4 4 4 4 4 4 4 4 4 4 5 5 5 5 6 6 6 7 7 7 7 7 7 7 6 6 6 5 4 4 4 4 5 5 6 5 5 5 5 6 7 7 7 7 7 7 7 8 8 9 9 8 8 8 8 9 9 9 9 10 10 10 11 12 13 14 16 17 17 18 18 19 19 19 19 18 14 12 12
8 8 7 5 5 4 4 5 5 5 4 4 4 4 4 4 4 5 5 5 6 6 6 6 7 7 7 7 7 7 7 6 5 5 5 4 4 4 4 4 5 5 5 5 5 5 5 7 8 8 8 8 8 7 7 8 8 8 8 8 8 8 8 9 9 9 10 10 10 10 10 10 11 12 13 14 16 17 19 20 21 21 21 19 17 14
7 7 6 5 5 5 5 5 5 5 5 5 4 4 4 4 4 5 5 5 5 6 6 6 7 7 7 7 7 8 7 6 6 6 6 5 4 4 4 4 5 5 6 6 6 5 6 7 8 9 9 9 8 7 7 7 7 8 8 8 8 9 9 9 9 9 10 10 10 9 9 9 10 10 11 14 17 19 20 21 21 22 22 22 20 18
6 6 5 5 5 5 5 5 5 5 5 4 4 4 4 4 4 5 5 5 5 6 6 7 7 7 8 8 8 8 8 7 7 7 7 6 5 5 5 5 5 6 6 6 6 6 6 7 8 8 8 8 8 7 7 7 8 8 8 8 9 9 9 9 9 9 10 10 10 10 10 10 10 11 12 15 17 18 19 20 20 20 21 21 21 21
6 5 5 5 5 5 5 5 5 4 4 4 3 4 4 4 5 5 5 6 6 7 7 6 7 8 10 11 11 11 10 10 10 10 10 8 7 6 6 6 6 6 6 6 7 7 7 7 8 8 7 7 8 8 9 9 9 9 9 9 9 9 9 9 9 9 9 10 10 11 11 11 11 11 11 12 12 12 13 13 14 15 17 18 19 20
5 5 5 5 5 4 4 4 4 4 3 3 3 3 4 5 6 6 6 6 6 7 7 7 7 8 10 11 13 13 12 12 12 12 11 10 8 7 7 7 7 7 7 7 7 7 7 8 8 7 7 7 8 9 9 9 9 10 10 10 9 9 9 9 9 9 9 10 11 11 11 11 10 10 10 10 10 10 11 11 11 12 13 12 14 16
5 5 5 5 5 4 4 4 3 3 2 3 3 4 5 5 5 5 6 6 6 6 7 8 8 8 8 9 10 11 12 11 11 11 10 10 9 8 7 7 7 7 7 7 7 7 8 8 9 9 9 8 8 9 9 9 9 10 11 10 8 7 8 8 9 9 9 10 10 11 11 10 10 10 10 10 10 10 10 10 10 10 11 10 10 11
6 6 5 5 4 4 4 3 2 2 2 3 4 4 5 5 4 4 4 5 5 5 6 6 7 7 8 8 9 10 10 10 10 11 10 10 10 9 8 8 7 7 7 7 7 8 8 9 9 9 9 9 10 10 10 10 11 12 12 11 10 10 10 10 10 10 10 10 10 10 11 11 11 11 11 11 11 10 10 10 11 11 11 10 10 10
7 6 5 4 4 3 2 2 2 2 3 4 5 5 5 4 4 3 4 4 4 5 5 5 5 6 7 7 8 8 9 9 9 10 10 11 11 10 9 8 8 7 7 8 8 8 8 9 9 9 9 9 9 10 10 11 11 11 11 11 11 12 11 11 10 9 9 9 9 10 11 11 11 11 11 11 11 10 11 11 12 13 12 11 10 10
7 6 5 4 2 2 1 2 3 4 4 5 5 5 4 3 3 3 4 4 5 5 5 5 5 6 6 7 7 7 7 8 9 10 10 10 11 11 11 10 9 8 8 8 8 8 9 9 9 9 9 9 10 10 11 11 11 11 11 11 11 10 8 8 7 8 9 9 10 10 10 10 10 10 11 11 11 10 10 12 13 14 13 11 11 11
5 4 3 2 1 2 2 3 4 5 5 5 5 4 4 3 3 4 4 4 5 5 5 5 5 6 7 7 7 6 6 6 7 8 9 10 10 10 11 11 11 10 9 9 8 8 8 9 9 9 9 9 10 10 11 11 11 11 10 11 11 11 9 9 9 9 10 10 10 10 10 10 11 11 11 11 10 10 10 10 10 11 12 11 11 11
3 3 2 2 2 3 4 5 5 5 4 4 4 4 3 3 4 4 4 5 5 5 5 5 5 5 5 6 6 6 5 5 5 6 6 8 10 11 11 10 10 10 10 9 9 8 8 8 9 9 8 9 10 11 11 11 11 11 11 11 12 12 12 11 11 11 11 11 11 11 11 11 11 11 11 11 10 10 10 10 11 11 11 11 11 11
3 3 3 3 4 4 5 5 4 4 4 4 4 4 3 3 3 4 5 5 5 5 5 5 5 5 5 6 5 5 5 5 5 5 5 5 6 7 8 9 9 9 9 9 9 9 9 9 9 9 9 9 10 11 11 11 12 12 11 11 11 11 11 11 11 11 11 11 11 11 11 11 11 11 11 11 11 11 10 10 11 11 11 11 11 11
3 4 4 4 5 5 5 4 4 4 4 4 4 4 3 3 4 4 5 5 5 5 5 5 5 6 7 6 6 5 5 6 5 5 5 5 5 6 7 7 8 8 8 8 9 10 10 10 10 10 10 10 10 11 11 11 11 12 11 11 11 11 11 11 10 10 11 11 11 11 11 11 10 11 11 11 11 11 10 10 11 11 11 11 11 12
5 5 5 5 4 4 4 4 4 4 4 4 4 4 3 4 4 5 5 5 5 5 5 5 6 6 7 7 6 6 6 6 6 6 5 5 6 6 6 6 6 7 7 8 9 10 11 11 12 12 11 11 11 11 11 11 11 11 11 11 11 11 11 11 11 10 10 11 11 10 10 10 10 11 12 12 11 11 11 11 11 11 11 11 12 12
5 5 5 4 4 4 4 4 4 4 4 4 4 4 4 4 5 6 5 5 5 5 5 6 6 6 6 6 6 6 7 7 6 6 6 6 5 5 5 5 5 6 6 7 8 9 10 11 13 13 13 12 12 12 12 11 11 11 11 11 11 11 11 11 10 10 10 10 11 10 10 9 10 10 11 12 13 13 12 11 11 11 11 11 11 12
6 5 4 4 4 4 4 4 4 4 5 5 4 4 4 4 5 5 5 5 5 5 5 6 6 6 6 6 6 6 6 6 6 6 6 5 5 5 5 5 5 6 6 6 7 7 8 8 9 11 13 14 14 13 12 12 11 11 11 10 10 10 10 10 10 10 10 10 10 10 10 10 10 10 10 12 13 14 13 12 12 11 10 11 11 12
6 5 4 4 4 4 4 4 4 5 5 5 5 5 5 5 5 5 5 5 5 6 6 6 6 6 7 7 7 7 7 7 7 7 6 5 5 5 5 5 5 6 6 6 6 5 5 5 6 7 9 13 15 14 12 11 11 11 10 10 9 9 9 10 10 10 10 10 10 10 10 10 10 10 10 11 12 13 13 12 12 11 11 10 11 12
Wind_Direction
296 300 301 299 296 292 289 288 288 288 288 290 293 296 298 295 292 291 292 289 287 286 285 285 286 287 287 287 289 291 294 296 298 299 300 300 300 301 302 302 303 303 304 304 304 304 304 304 304 303 303 302 302 301 301 301 300 300 300 299 299 299 298 298 298 297 297 297 296 296 297 297 298 298 298 297 296 294 293 292 292 291 291 291 291 291
300 300 297 295 292 290 287 286 285 285 289 294 297 299 299 298 296 295 293 289 287 287 287 289 291 292 293 293 293 294 295 297 298 299 300 300 300 300 301 301 301 302 302 303 304 304 304 304 304 303 303 302 302 302 302 301 301 301 300 300 300 299 299 299 299 298 298 298 297 298 298 298 298 297 296 295 294 293 292 292 292 292 292 292 292 291
306 302 298 296 294 292 289 290 289 289 293 296 297 298 298 297 297 295 293 290 289 288 288 291 294 295 295 295 295 295 296 297 298 299 300 300 300 299 299 299 300 300 302 303 303 303 303 303 303 302 302 302 302 302 302 301 301 301 300 300 300 299 299 299 299 298 298 298 298 298 298 298 297 296 295 294 293 293 293 293 293 293 292 292 291 291
301 299 300 299 295 291 289 293 295 296 296 295 295 294 295 295 294 292 291 291 290 290 291 294 296 297 297 296 295 295 296 297 298 299 299 298 298 297 297 297 298 299 300 301 302 302 301 301 301 301 301 301 301 301 301 301 301 301 300 300 300 299 299 299 298 298 298 298 298 298 298 297 296 295 294 294 294 294 293 293 293 292 292 292 291 292
295 296 301 301 297 293 292 295 297 298 297 293 292 293 294 293 291 290 289 289 290 291 294 297 298 297 296 294 293 294 295 296 296 296 296 295 294 294 293 294 295 296 298 298 299 299 299 299 300 300 300 300 301 301 301 301 301 300 300 300 299 299 299 299 299 299 298 298 298 298 297 297 296 295 295 294 294 294 293 293 292 292 292 292 292 292
293 295 300 299 297 297 299 298 297 297 294 291 291 292 292 290 288 287 287 288 291 294 297 297 296 295 293 292 292 293 293 293 293 292 291 290 290 289 289 291 292 294 296 296 297 297 297 298 298 299 299 300 300 300 300 300 300 300 300 300 300 300 299 299 299 299 299 298 298 297 297 296 295 295 294 294 294 293 293 292 292 292 292 292 292 292
292 293 296 294 293 294 294 292 292 293 294 295 295 294 292 288 285 284 286 291 295 297 297 294 293 291 290 290 291 292 292 291 289 287 286 284 284 285 287 289 291 293 295 295 296 296 296 296 297 297 298 298 299 299 299 299 299 299 300 300 300 300 300 299 299 299 298 298 297 296 296 295 295 294 294 294 293 293 292 292 292 292 293 293 292 292
288 290 290 290 290 288 285 286 288 291 294 298 299 299 297 293 289 288 290 293 297 298 297 295 294 292 291 292 293 293 293 291 290 287 285 284 284 286 289 291 293 294 295 295 295 295 295 295 295 295 295 296 297 297 298 298 299 299 299 299 299 299 299 299 298 298 297 297 296 295 294 294 294 294 294 293 293 292 292 292 293 293 293 292 292 291
280 284 285 285 285 286 287 287 289 292 296 297 298 299 299 297 296 295 296 297 299 300 300 300 299 297 295 295 294 294 293 292 290 289 289 290 291 292 293 295 295 294 294 294 293 293 293 292 293 293 293 294 295 296 296 297 297 297 298 298 298 298 298 297 297 296 295 295 294 294 294 294 294 294 294 293 293 293 293 293 293 293 292 292 291 291
271 276 280 279 279 282 286 289 292 294 297 294 291 290 290 294 298 303 305 304 304 305 303 302 302 301 300 297 294 292 291 288 285 283 283 284 286 288 290 290 290 290 291 291 291 291 290 290 290 291 291 292 293 293 294 294 295 295 296 296 296 296 296 296 295 294 294 294 294 294 294 294 294 294 294 293 293 293 293 293 292 292 291 291 291 291
269 270 273 276 277 279 280 285 291 295 295 288 282 278 275 286 301 310 310 309 309 309 306 303 301 301 301 298 294 292 290 287 284 282 280 280 281 282 283 283 284 286 287 288 288 288 288 288 289 289 290 290 290 291 291 291 292 293 294 294 295 294 294 294 294 294 294 294 294 294 294 294 294 294 294 293 293 293 292 292 291 291 290 290 290 290
269 270 271 274 277 278 277 279 282 285 285 282 280 279 277 293 310 316 311 310 311 311 309 305 300 297 295 294 293 291 288 288 289 290 288 285 284 284 285 286 286 287 288 288 288 287 288 288 288 288 288 287 287 288 288 289 290 291 292 293 293 294 294 294 294 294 295 295 295 295 295 294 294 294 293 293 293 292 292 291 290 290 289 289 289 289
267 269 271 272 274 274 275 276 278 278 278 282 288 295 301 317 322 316 307 305 306 308 309 305 300 294 290 286 283 283 285 289 292 294 292 289 290 292 295 295 294 293 292 291 289 289 289 289 288 287 285 284 284 285 285 287 289 290 292 293 294 294 295 295 295 296 296 296 295 295 295 294 294 293 293 293 292 292 291 291 290 289 289 289 288 288
267 268 269 269 270 271 273 277 281 283 284 286 291 298 307 313 313 308 302 300 302 305 306 302 300 296 289 279 273 273 283 290 291 290 288 288 292 298 301 298 296 294 294 292 290 289 291 291 288 285 283 282 282 283 284 287 290 292 294 295 295 296 296 296 296 296 296 296 295 295 294 294 293 293 293 292 292 291 291 290 290 289 289 288 288 288
268 270 272 271 271 272 275 279 282 281 281 284 290 297 303 302 302 302 302 303 305 307 307 302 299 296 290 280 272 269 280 286 289 290 292 293 296 300 301 297 294 293 292 291 289 289 290 287 285 283 282 281 282 285 289 292 294 295 295 296 296 296 297 297 297 296 296 296 295 295 294 294 294 293 293 292 292 291 291 290 290 289 289 288 288 287
265 267 268 269 270 270 272 274 276 277 279 285 291 297 298 298 300 302 303 304 306 308 307 306 304 302 297 290 272 243 261 283 292 297 299 298 298 299 299 297 294 292 290 288 287 287 287 284 282 282 282 285 288 291 293 293 294 295 295 296 296 296 297 297 297 297 296 296 296 295 295 294 294 293 293 292 292 291 291 291 290 289 289 288 288 287
258 259 262 265 267 268 268 271 275 280 286 291 294 294 293 293 296 298 298 299 301 303 303 306 307 308 307 306 291 254 276 302 306 306 303 299 298 298 299 296 293 290 287 285 284 285 285 284 283 283 284 288 291 292 293 293 293 294 294 295 296 297 297 297 297 297 297 296 296 295 295 294 294 293 293 292 292 292 291 291 290 289 289 288 288 287
252 253 257 262 265 267 269 272 276 281 286 288 287 286 284 287 291 294 293 292 293 294 296 297 298 299 303 304 307 317 328 324 317 310 303 298 296 297 297 292 288 286 285 283 282 283 285 286 286 286 287 290 290 290 290 290 292 293 294 295 296 297 297 297 297 297 296 296 295 295 294 294 293 293 293 292 292 292 291 291 290 290 289 288 288 288
252 252 254 261 266 270 273 274 276 278 279 281 284 287 289 291 292 291 288 284 282 283 286 287 288 289 292 293 300 312 329 325 316 307 300 297 296 296 296 290 285 282 281 281 283 285 287 286 285 285 286 286 287 288 288 289 291 293 294 295 296 297 297 297 297 296 296 296 295 295 294 294 293 293 293 293 292 292 292 291 291 290 290 289 289 288
260 257 255 263 270 274 273 271 271 273 275 280 285 289 290 291 289 285 279 275 273 272 275 279 282 284 286 289 296 308 323 320 311 301 295 293 293 294 295 290 287 284 283 283 285 288 288 286 285 284 284 285 286 287 289 290 292 293 294 295 296 296 296 296 296 296 296 295 295 294 294 294 293 293 293 293 292 292 292 292 291 291 290 290 289 288
265 262 260 265 269 272 271 269 269 271 276 282 283 283 284 285 282 278 273 272 271 271 272 274 279 284 291 296 302 308 315 309 302 295 292 291 291 291 294 291 289 287 286 287 289 290 290 288 286 286 286 287 288 289 291 291 292 293 293 294 294 295 295 295 295 295 295 295 294 294 294 294 294 293 293 293 293 293 292 292 292 291 290 290 289 288
265 265 265 266 266 267 270 273 273 272 271 273 274 276 278 277 275 274 273 273 274 275 276 278 285 293 299 298 298 298 298 293 290 289 292 289 288 289 294 294 292 290 289 290 292 292 290 289 288 288 289 290 290 291 291 291 291 291 291 292 293 293 294 294 294 294 294 294 294 294 294 294 294 294 294 294 293 293 292 292 291 291 290 290 289 288
260 261 263 262 262 262 266 268 268 266 263 264 265 267 268 268 269 271 276 276 276 277 281 287 291 292 290 287 287 287 286 283 282 283 286 285 287 291 297 297 295 292 290 292 294 294 293 291 290 290 291 291 291 291 290 290 289 289 290 290 291 292 293 293 293 293 294 294 294 294 294 294 294 294 294 293 293 293 292 292 291 291 290 290 290 289
256 258 260 259 257 257 258 259 259 259 259 258 258 258 258 260 263 267 271 271 273 276 282 287 288 286 284 285 286 287 286 283 281 279 278 281 285 290 298 300 297 292 289 292 295 297 296 293 292 292 292 291 291 290 289 288 288 288 289 289 290 291 292 292 292 293 293 293 294 294 294 294 294 293 293 293 293 292 292 292 292 291 291 291 290 290
254 256 257 257 255 254 254 255 256 256 255 253 253 253 254 255 256 257 258 262 270 279 289 292 292 291 292 294 292 290 289 286 281 277 275 280 284 288 294 298 296 292 290 293 296 298 297 294 293 292 292 290 289 288 287 287 287 288 288 289 290 290 291 291 292 292 293 293 293 293 293 293 293 292 292 292 292 292 292 292 292 292 292 291 291 290
252 254 255 256 255 255 254 255 256 255 254 252 251 250 250 249 249 250 251 259 273 287 297 297 296 295 297 296 293 290 291 289 283 276 274 279 284 287 291 292 291 290 291 295 298 299 297 295 294 292 291 289 287 287 287 287 288 289 289 290 290 290 291 291 291 292 292 292 292 292 292 292 292 292 292 292 292 292 292 292 292 293 293 293 292 291
253 254 255 255 255 255 254 255 257 258 258 256 256 255 256 252 254 259 262 274 290 300 301 298 296 295 295 292 289 289 292 293 287 280 276 278 281 284 288 290 292 293 295 297 299 298 296 294 292 291 288 287 286 287 289 290 291 291 291 291 291 291 291 291 291 291 291 291 291 291 291 291 292 292 292 292 292 292 292 293 293 294 294 294 293 290
253 254 255 255 255 256 257 258 260 263 265 268 271 275 279 274 272 274 277 291 301 302 295 291 291 292 292 289 288 289 291 289 284 278 275 274 276 280 288 294 297 298 300 299 298 295 292 289 287 287 286 287 290 292 295 296 295 295 294 293 293 292 291 291 291 291 291 291 291 292 292 292 292 292 292 292 292 292 293 294 294 295 295 294 292 289
252 253 254 255 256 257 258 261 264 268 273 277 282 287 288 281 278 279 285 295 296 290 283 282 283 284 286 288 288 288 286 281 277 274 272 271 272 278 289 295 298 301 305 303 300 295 287 284 284 287 290 295 299 301 301 301 299 297 296 294 293 292 292 292 292 292 292 292 292 292 292 292 292 292 292 292 292 293 294 295 295 296 295 293 290 288
247 248 250 251 252 253 254 258 262 267 271 274 276 277 277 274 273 276 283 288 283 277 276 277 278 280 283 288 289 286 280 276 275 277 275 270 271 278 290 296 299 304 311 309 306 300 292 288 288 292 299 303 305 305 304 303 301 298 296 294 293 292 293 293 294 293 293 293 293 292 292 292 292 292 293 293 293 294 294 295 296 296 294 291 289 288
245 245 247 246 246 246 246 250 255 261 265 266 267 267 266 265 265 267 271 269 266 266 269 272 275 277 279 282 283 282 279 280 276 257 274 271 275 284 296 298 299 303 310 312 309 305 302 299 299 302 308 307 305 303 301 299 297 296 295 295 294 294 294 295 295 295 294 294 294 294 294 294 294 294 293 293 294 294 294 295 295 295 293 291 290 288
250 249 249 246 243 239 236 239 245 252 255 254 253 251 251 251 252 254 255 255 255 258 263 268 271 272 271 268 267 268 273 282 288 291 295 287 285 288 295 295 297 300 307 304 298 296 298 301 305 308 308 304 300 298 297 296 296 297 297 296 295 294 296 297 297 296 296 296 296 296 296 295 295 294 294 293 293 293 294 294 294 294 292 291 290 290
252 251 247 243 237 231 225 230 237 243 247 247 244 241 239 240 242 244 247 248 250 252 256 261 265 267 266 262 261 261 266 273 285 295 300 293 289 288 294 295 297 300 302 294 285 280 281 289 297 302 300 297 296 295 296 297 296 296 295 295 295 296 298 299 299 299 299 299 298 298 297 296 295 294 293 293 293 293 293 294 294 293 292 291 291 290
249 246 241 235 229 224 222 229 233 237 238 239 237 234 231 234 236 239 241 244 245 245 246 251 256 260 262 262 261 262 264 268 277 288 297 292 288 289 294 293 294 295 296 290 284 279 275 281 287 294 297 296 295 294 295 295 294 293 292 294 296 298 301 303 303 302 301 301 299 298 297 296 295 294 294 293 293 293 294 294 294 293 292 291 290 291
243 238 231 226 224 224 227 230 230 230 229 228 226 226 229 234 236 239 241 242 243 242 242 245 249 253 256 259 262 265 266 270 280 291 300 295 292 291 291 287 288 290 290 286 285 283 280 282 286 291 296 297 295 292 289 290 291 293 295 297 298 300 302 303 303 302 300 299 297 296 296 296 295 295 294 294 294 294 295 294 294 293 291 290 288 287
237 230 221 219 221 226 229 229 228 228 227 224 222 223 229 235 239 241 242 243 243 244 245 247 248 249 251 255 260 264 269 276 285 293 297 294 291 288 284 281 282 284 284 282 282 282 283 285 287 288 290 291 292 292 290 293 296 299 300 300 299 299 299 299 299 298 297 297 296 296 295 295 295 294 294 295 295 295 295 294 293 292 290 288 286 284
230 226 220 220 222 226 229 229 228 228 227 226 224 225 230 236 241 244 246 246 247 249 252 253 253 253 253 255 258 263 269 276 281 283 284 284 281 277 274 274 274 274 273 276 279 281 282 284 285 285 283 283 287 293 299 303 304 302 299 299 299 298 297 296 295 295 294 293 293 293 294 295 296 295 295 295 294 294 293 292 291 290 289 288 286 284
228 228 226 223 222 223 226 227 227 227 225 227 230 234 239 243 245 248 249 248 249 250 254 255 257 258 257 259 260 263 267 270 272 273 273 273 269 266 265 268 268 266 264 268 273 277 278 280 282 283 282 282 285 291 298 302 302 299 297 297 297 295 294 293 292 291 291 292 293 294 295 295 295 295 294 294 294 294 293 292 291 290 289 288 286 284
227 230 232 228 224 222 223 224 225 225 226 231 238 247 254 254 253 250 249 249 248 249 250 253 256 258 258 258 259 261 262 264 265 266 265 263 260 258 259 263 264 263 262 263 265 268 270 272 274 278 282 286 288 289 292 293 294 296 298 298 294 290 288 290 292 293 295 295 295 295 294 293 292 291 291 292 292 291 290 290 290 290 290 290 288 285
229 233 236 234 231 228 227 228 228 228 232 242 252 256 258 258 255 253 251 251 251 252 253 254 256 258 258 258 257 257 257 258 258 258 257 253 251 250 253 256 260 262 262 260 260 260 262 265 268 271 275 280 285 287 288 287 289 292 297 297 295 293 293 296 297 297 296 293 291 290 290 289 288 287 286 286 285 286 287 288 289 289 289 289 288 288
236 240 242 242 239 235 232 232 231 233 242 253 256 256 254 254 255 255 253 253 254 254 256 257 258 260 260 258 256 255 253 252 251 250 249 246 245 245 248 251 255 259 260 259 257 257 258 262 266 269 272 275 279 282 283 284 287 290 293 292 292 293 296 295 293 290 288 285 283 283 284 285 284 283 283 283 283 283 284 285 286 286 285 282 282 283
247 248 248 245 239 233 226 226 231 238 243 248 251 253 252 252 253 255 257 258 258 258 258 261 264 265 266 262 258 254 251 250 248 245 244 241 240 240 244 247 250 253 257 258 257 257 256 259 263 267 270 274 277 279 280 282 285 286 287 286 289 291 291 287 284 282 282 282 282 282 283 284 284 285 284 284 283 283 282 281 281 281 281 279 277 275
247 247 247 241 229 209 199 220 233 239 242 245 248 250 250 249 250 253 258 261 263 264 265 265 267 268 270 270 268 263 256 251 248 245 242 238 236 237 240 243 246 248 251 256 258 259 258 258 261 264 267 271 274 276 279 282 282 281 279 281 285 289 290 287 286 286 285 284 285 285 284 284 284 284 283 282 281 280 279 278 277 277 277 277 276 274
242 242 239 234 223 219 228 234 238 241 246 250 253 254 252 247 247 250 256 261 263 265 265 265 265 266 267 269 271 270 266 257 251 247 246 242 238 236 239 242 245 246 248 252 257 261 263 261 261 263 266 269 271 273 275 278 279 280 280 280 281 280 280 285 289 289 286 284 282 281 281 281 281 281 280 278 278 277 277 277 277 276 276 275 274 273
223 218 215 217 224 232 239 243 248 252 255 258 260 259 256 250 249 250 255 261 263 263 261 261 262 264 264 267 270 274 275 272 265 258 253 249 246 243 242 243 244 245 246 248 251 256 262 264 266 267 268 268 268 270 273 276 278 279 279 279 279 277 276 280 283 284 284 283 281 280 279 280 280 280 279 279 278 277 277 278 278 277 276 274 273 271
208 213 221 226 234 240 246 251 256 261 263 263 261 258 254 251 250 252 255 259 261 260 258 256 256 260 264 270 274 278 280 279 276 271 266 260 255 250 246 244 244 244 245 247 249 252 256 262 267 272 274 271 269 268 269 273 277 279 280 280 280 279 279 279 279 279 279 280 280 280 280 281 281 280 280 281 281 280 278 277 277 278 278 276 274 271
207 215 225 231 238 245 251 257 261 264 265 263 260 256 252 251 252 254 255 254 254 255 255 253 254 257 262 268 272 275 278 279 278 277 276 274 270 264 259 253 249 248 249 251 252 254 255 258 262 266 269 271 271 270 268 270 272 275 278 279 279 279 278 277 276 276 276 276 277 280 282 283 282 281 281 282 282 281 280 279 278 277 276 275 273 271
216 223 231 237 245 254 262 266 268 267 265 263 260 256 252 250 250 251 253 250 250 251 253 254 255 257 261 265 268 271 274 278 280 281 280 278 274 271 267 265 262 260 258 260 261 261 260 259 258 257 259 262 266 268 269 268 269 270 273 275 276 276 275 276 276 276 276 276 278 280 284 284 284 285 286 286 284 282 281 279 277 275 273 272 271 270
225 233 240 246 254 263 270 272 271 268 264 262 260 258 255 251 247 247 249 249 250 252 254 256 259 261 264 267 269 271 273 276 278 278 277 276 274 273 272 273 274 274 273 271 268 266 264 260 256 252 250 252 257 262 267 267 267 267 269 270 272 273 274 276 277 278 279 280 282 283 284 283 283 285 287 286 284 282 281 280 277 275 272 270 269 268
225 231 240 248 256 262 267 269 267 263 260 258 259 258 257 252 247 243 244 246 249 251 254 257 260 264 267 269 271 273 275 276 276 276 275 275 276 277 278 280 282 282 281 277 273 271 269 265 259 252 246 246 248 253 261 264 266 266 267 268 269 272 274 278 281 283 285 286 287 286 285 283 282 282 282 281 281 282 282 280 278 275 273 270 268 267
223 225 230 238 246 253 258 259 258 256 256 255 255 256 256 251 246 242 240 242 245 249 252 255 259 262 266 269 272 273 274 275 276 277 278 279 280 281 282 284 284 284 283 282 280 279 278 278 274 265 254 247 245 247 255 262 268 270 271 271 273 276 279 282 285 287 288 288 288 287 286 284 282 280 278 279 280 282 282 280 278 276 274 273 271 270